TimeCDT,TemperatureF,Dew PointF,Humidity,Sea Level PressureIn,VisibilityMPH,Wind Direction,Wind SpeedMPH,Gust SpeedMPH,PrecipitationIn,Events,Conditions,WindDirDegrees,DateUTC
12:19 AM,58.1,57.2,97,30.04,10.0,Calm,Calm,-,N/A,,Clear,0,2013-07-24 05:19:00
12:34 AM,57.7,56.8,97,30.04,10.0,Calm,Calm,-,N/A,,Clear,0,2013-07-24 05:34:00
12:53 AM,57.2,56.3,97,30.04,10.0,Calm,Calm,-,N/A,,Clear,0,2013-07-24 05:53:00
1:14 AM,57.2,55.8,95,30.05,10.0,Calm,Calm,-,N/A,,Clear,0,2013-07-24 06:14:00
1:34 AM,57.2,55.6,94,30.05,10.0,Calm,Calm,-,N/A,,Scattered Clouds,0,2013-07-24 06:34:00
1:53 AM,57.9,56.1,94,30.05,10.0,Calm,Calm,-,N/A,,Mostly Cloudy,0,2013-07-24 06:53:00
2:14 AM,59.9,57.7,93,30.04,10.0,Calm,Calm,-,N/A,,Overcast,0,2013-07-24 07:14:00
2:34 AM,59.9,58.3,94,30.04,10.0,Calm,Calm,-,N/A,,Overcast,0,2013-07-24 07:34:00
2:53 AM,61.0,58.5,91,30.04,10.0,Calm,Calm,-,N/A,,Overcast,0,2013-07-24 07:53:00
3:14 AM,61.2,59.4,94,30.04,10.0,Calm,Calm,-,N/A,,Overcast,0,2013-07-24 08:14:00
3:33 AM,61.7,58.6,90,30.04,10.0,Calm,Calm,-,N/A,,Overcast,0,2013-07-24 08:33:00
3:53 AM,62.1,58.6,89,30.04,10.0,Calm,Calm,-,N/A,,Overcast,0,2013-07-24 08:53:00
4:14 AM,62.1,58.8,89,30.04,10.0,Calm,Calm,-,N/A,,Overcast,0,2013-07-24 09:14:00
4:33 AM,62.1,58.6,89,30.05,10.0,Calm,Calm,-,N/A,,Overcast,0,2013-07-24 09:33:00
4:53 AM,62.1,58.5,88,30.06,10.0,Calm,Calm,-,N/A,,Overcast,0,2013-07-24 09:53:00
5:14 AM,62.2,58.3,87,30.06,10.0,Calm,Calm,-,N/A,,Overcast,0,2013-07-24 10:14:00
5:33 AM,61.9,58.3,88,30.06,10.0,Calm,Calm,-,N/A,,Overcast,0,2013-07-24 10:33:00
5:53 AM,61.7,58.5,89,30.06,10.0,Calm,Calm,-,N/A,,Overcast,0,2013-07-24 10:53:00
6:14 AM,61.7,58.6,90,30.07,10.0,Calm,Calm,-,N/A,,Overcast,0,2013-07-24 11:14:00
6:33 AM,61.7,57.7,87,30.07,10.0,SE,4.6,-,N/A,,Overcast,130,2013-07-24 11:33:00
6:54 AM,61.5,57.9,88,30.07,10.0,Calm,Calm,-,N/A,,Overcast,0,2013-07-24 11:54:00
7:14 AM,61.7,58.5,89,30.07,10.0,Calm,Calm,-,N/A,,Overcast,0,2013-07-24 12:14:00
7:33 AM,61.7,59.0,91,30.07,10.0,Calm,Calm,-,N/A,,Overcast,0,2013-07-24 12:33:00
7:54 AM,62.1,59.2,90,30.07,10.0,Calm,Calm,-,N/A,,Overcast,0,2013-07-24 12:54:00
8:13 AM,62.2,59.0,89,30.07,10.0,East,3.5,-,N/A,,Overcast,100,2013-07-24 13:13:00
8:34 AM,62.6,59.4,89,30.08,10.0,Calm,Calm,-,N/A,,Overcast,0,2013-07-24 13:34:00
8:54 AM,62.8,60.1,91,30.08,10.0,Calm,Calm,-,N/A,,Overcast,0,2013-07-24 13:54:00
9:14 AM,64.4,60.6,88,30.08,10.0,Calm,Calm,-,N/A,,Overcast,0,2013-07-24 14:14:00
9:33 AM,64.9,58.6,80,30.08,10.0,SSE,3.5,-,N/A,,Mostly Cloudy,160,2013-07-24 14:33:00
9:54 AM,67.8,59.5,75,30.07,10.0,South,4.6,-,N/A,,Scattered Clouds,180,2013-07-24 14:54:00
10:13 AM,69.6,59.4,70,30.07,10.0,SW,4.6,-,N/A,,Clear,230,2013-07-24 15:13:00
10:34 AM,70.9,59.4,67,30.07,10.0,West,4.6,-,N/A,,Clear,260,2013-07-24 15:34:00
10:54 AM,71.6,59.2,65,30.07,5.0,Calm,Calm,-,N/A,,Haze,0,2013-07-24 15:54:00
11:14 AM,72.9,59.4,62,30.07,10.0,WNW,3.5,-,N/A,,Clear,290,2013-07-24 16:14:00
11:34 AM,72.7,58.1,60,30.06,10.0,West,4.6,-,N/A,,Scattered Clouds,260,2013-07-24 16:34:00
11:53 AM,73.0,57.0,57,-9999,10.0,NW,6.9,-,N/A,,Scattered Clouds,310,2013-07-24 16:53:00
12:14 PM,75.9,57.7,53,30.06,10.0,WNW,5.8,-,N/A,,Scattered Clouds,300,2013-07-24 17:14:00
12:34 PM,76.3,56.5,50,30.06,10.0,NW,8.1,-,N/A,,Mostly Cloudy,310,2013-07-24 17:34:00
12:54 PM,75.9,55.8,49,30.06,10.0,West,6.9,-,N/A,,Mostly Cloudy,280,2013-07-24 17:54:00
1:13 PM,75.0,55.2,50,30.06,10.0,WNW,8.1,-,N/A,,Scattered Clouds,290,2013-07-24 18:13:00
1:31 PM,76.8,55.0,47,30.05,10.0,West,10.4,16.1,N/A,,Scattered Clouds,280,2013-07-24 18:31:00
1:54 PM,74.5,55.4,51,30.04,10.0,WNW,9.2,-,N/A,,Mostly Cloudy,300,2013-07-24 18:54:00
2:13 PM,77.0,55.2,47,30.04,10.0,WNW,6.9,-,N/A,,Mostly Cloudy,300,2013-07-24 19:13:00
2:32 PM,77.9,57.0,48,30.04,10.0,West,6.9,-,N/A,,Scattered Clouds,280,2013-07-24 19:32:00
2:53 PM,75.9,56.5,51,30.04,10.0,NW,9.2,-,N/A,,Scattered Clouds,310,2013-07-24 19:53:00
3:13 PM,74.7,56.5,53,30.04,10.0,West,4.6,-,N/A,,Scattered Clouds,280,2013-07-24 20:13:00
3:34 PM,75.7,57.0,52,30.04,10.0,NW,5.8,-,N/A,,Mostly Cloudy,320,2013-07-24 20:34:00
3:59 PM,77.7,56.8,48,30.03,7.0,WNW,3.5,-,N/A,,Mostly Cloudy,300,2013-07-24 20:59:00
4:13 PM,77.9,54.7,45,30.02,10.0,Calm,Calm,-,N/A,,Mostly Cloudy,0,2013-07-24 21:13:00
4:34 PM,78.1,55.6,46,30.02,10.0,West,8.1,-,N/A,,Scattered Clouds,270,2013-07-24 21:34:00
4:54 PM,76.6,55.2,47,30.02,10.0,West,6.9,-,N/A,,Clear,280,2013-07-24 21:54:00
5:13 PM,77.4,56.1,48,30.02,10.0,West,10.4,-,N/A,,Scattered Clouds,260,2013-07-24 22:13:00
5:34 PM,76.1,56.5,50,30.02,10.0,WNW,6.9,-,N/A,,Scattered Clouds,300,2013-07-24 22:34:00
5:54 PM,76.5,56.7,50,30.02,10.0,NW,4.6,-,N/A,,Scattered Clouds,320,2013-07-24 22:54:00
6:13 PM,77.7,57.4,49,30.01,10.0,West,6.9,-,N/A,,Scattered Clouds,280,2013-07-24 23:13:00
6:34 PM,77.2,57.2,50,30.00,10.0,West,4.6,-,N/A,,Clear,280,2013-07-24 23:34:00
6:54 PM,77.0,56.7,49,30.00,10.0,WNW,5.8,-,N/A,,Clear,290,2013-07-24 23:54:00
7:13 PM,76.3,58.1,53,30.00,10.0,West,5.8,-,N/A,,Clear,270,2013-07-25 00:13:00
7:34 PM,75.6,59.5,57,30.00,10.0,WSW,3.5,-,N/A,,Clear,240,2013-07-25 00:34:00
7:53 PM,74.7,59.7,60,29.99,10.0,Calm,Calm,-,N/A,,Clear,0,2013-07-25 00:53:00
8:13 PM,73.6,61.0,65,30.00,10.0,Calm,Calm,-,N/A,,Clear,0,2013-07-25 01:13:00
8:53 PM,69.8,60.8,73,29.99,10.0,Calm,Calm,-,N/A,,Clear,0,2013-07-25 01:53:00
9:12 PM,68.9,60.8,75,30.00,10.0,Calm,Calm,-,N/A,,Clear,0,2013-07-25 02:12:00
9:34 PM,68.0,60.1,76,30.00,10.0,South,3.5,-,N/A,,Clear,180,2013-07-25 02:34:00
9:54 PM,66.7,59.7,78,30.00,10.0,Calm,Calm,-,N/A,,Clear,0,2013-07-25 02:54:00
10:13 PM,65.8,59.7,81,30.00,10.0,South,3.5,-,N/A,,Clear,180,2013-07-25 03:13:00
10:34 PM,64.6,59.4,83,30.00,10.0,Calm,Calm,-,N/A,,Clear,0,2013-07-25 03:34:00
10:54 PM,64.6,59.0,82,30.00,10.0,South,4.6,-,N/A,,Clear,180,2013-07-25 03:54:00
11:14 PM,65.5,58.1,77,30.01,10.0,South,3.5,-,N/A,,Clear,180,2013-07-25 04:14:00
11:34 PM,64.9,58.1,78,30.00,10.0,South,4.6,-,N/A,,Clear,190,2013-07-25 04:34:00
11:54 PM,65.3,58.1,77,30.00,10.0,South,3.5,-,N/A,,Clear,190,2013-07-25 04:54:00